CZ-6A DEB

Satellite information

Favourite Embed

Satellite Type and Status

DEBRISIN ORBIT

Key statistics

Satellite CZ-6A DEB at a glance.

Uptime

908

Days in orbit

Revolutions

≈ 14.6

Per day

Orbit

SSO

Sun Synchronous Orbit

Inclination

98.6

Latest

Satellite identification and parameters

Extended collection of information and parameters for CZ-6A DEB.

Object identification

Identified? True

Debris? True

Object name: CZ-6A DEB

International designator: 2022-151ZA

Object number (NORAD): 55552

Object ID (CCSDS): 55552

Country: PEOPLES REPUBLIC OF CHINA (PRC)

Current information (Y/N): Y

RCS size: SMALL

Orbital parameters

Period: 98.824 minutes

Inclination: 98.6395 deg

SMA: 7080.589 km

Apoapsis: 763.588 km

Periapsis: 641.321 km

RAAN: 162.3879 deg

Eccentricy: 0.008634

Argument of periapsis: 120.0812 deg

Mean anomaly: 240.8982 deg

Mean motion: 14.57131172 rev/day

Mean motion (dot): 0.00014081 rev/day2

B* drag term: 0.0029736 1/REarth

Two-line elements (TLE)

Creation date: May 7, 2025, 3:14 a.m.

Reference frame: TEME

Reference center: EARTH

Epoch: May 6, 2025, 2:19 p.m. UTC

TLE line 0: 0 CZ-6A DEB

TLE line 1: 1 55552U 22151ZA 25126.59662773 .00014081 00000-0 29736-2 0 9997

TLE line 2: 2 55552 98.6395 162.3879 0086340 120.0812 240.8982 14.57131172124119

Live tracking on map

Real-time ground track for satellite CZ-6A DEB.

In-orbit conjunctions

A list of the most updated potential collisions computed for object CZ-6A DEB.

Target Orbit TCA Probability of collision Miss distance Type
IRIDIUM 63 LEO 2025-03-06 00:54:24 0.0002777574 268.0 (m) PAYLOAD
COSMOS 1937 LEO 2024-10-25 15:06:08 0.0001657097 613.0 (m) PAYLOAD

Associated space launch

Chinese satellite reported for atmospheric/ocean/environmental/spatial parameter research purposes, details TBD.

CZ-6A DEB was lifted into orbit during the mission ‘Long March 6A | Yunhai 3’, on board a Long March 6A space rocket.

The launch took place on Nov. 11, 2022, 10:52 p.m. from Launch Complex 9A.

For more information about the launch, click the button.

Launch to space Long March 6A | Yunhai 3
Long March 6A | Yunhai 3

Agency: N/A

Status: Launch Successful

Launch date: Nov. 11, 2022, 10:52 p.m. UTC

Rocket: Long March 6A

Launch pad: Launch Complex 9A

Location: Taiyuan Satellite Launch Center, People's Republic of China

...

Latest news about this satellite

There are no fresh news available about this satellite. Check back as we update our databases every day.


Newsletter sign-up

Weekly statistics, charts and insights to help you stay on top of the space industry.